• In Belgium
  • List of Countries
  • For 7 days
  • Water Temperature
  • Satellite Maps
  • Weather Map
  • Weather Widgets
  • user-avatar
    Login

    Hourly Weather Privolzhskiy

    Today, 24 September, Monday

    Time Temperature Precipitation Wind Pressure Humidity
    00:00 +8°C° 0 mm 3 mps 745 mmHg 87%
    01:00 +8°C° 0 mm 3 mps 745 mmHg 89%
    02:00 +7°C° 0 mm 3 mps 745 mmHg 90%
    03:00 +7°C° 0 mm 3 mps 745 mmHg 91%
    04:00 +7°C° 0 mm 2 mps 745 mmHg 93%
    05:00 +6°C° 0 mm 2 mps 745 mmHg 94%
    06:00 +6°C° 0 mm 2 mps 745 mmHg 95%
    07:00 +7°C° 0 mm 3 mps 745 mmHg 90%
    08:00 +8°C° 0 mm 3 mps 745 mmHg 85%
    09:00 +9°C° 0 mm 3 mps 745 mmHg 81%
    10:00 +11°C° 0 mm 3 mps 745 mmHg 74%
    11:00 +12°C° 0 mm 3 mps 744 mmHg 67%
    12:00 +14°C° 0 mm 4 mps 744 mmHg 60%
    13:00 +13°C° 0.6 mm 3 mps 744 mmHg 67%
    14:00 +12°C° 0.6 mm 3 mps 743 mmHg 75%
    15:00 +11°C° 0.6 mm 3 mps 743 mmHg 82%
    16:00 +10°C° 1.1 mm 3 mps 742 mmHg 85%
    17:00 +10°C° 1.1 mm 4 mps 742 mmHg 88%
    18:00 +8°C° 1.1 mm 4 mps 741 mmHg 90%
    19:00 +8°C° 2.1 mm 4 mps 740 mmHg 91%
    20:00 +7°C° 2.1 mm 5 mps 739 mmHg 91%
    21:00 +7°C° 2.1 mm 6 mps 737 mmHg 91%
    22:00 +7°C° 1.6 mm 5 mps 736 mmHg 92%
    23:00 +8°C° 1.6 mm 5 mps 735 mmHg 92%

    Tomorrow, 25 September, Tuesday

    Time Temperature Precipitation Wind Pressure Humidity
    00:00 +8°C° 1.6 mm 5 mps 734 mmHg 92%
    01:00 +8°C° 0.6 mm 5 mps 734 mmHg 91%
    02:00 +8°C° 0.6 mm 4 mps 733 mmHg 91%
    03:00 +8°C° 0.6 mm 4 mps 733 mmHg 90%
    04:00 +8°C° 0.3 mm 4 mps 733 mmHg 91%
    05:00 +7°C° 0.3 mm 4 mps 733 mmHg 92%
    06:00 +8°C° 0.3 mm 3 mps 733 mmHg 92%
    07:00 +7°C° 0.2 mm 4 mps 734 mmHg 92%
    08:00 +7°C° 0.2 mm 5 mps 734 mmHg 91%
    09:00 +7°C° 0.2 mm 5 mps 735 mmHg 90%
    10:00 +7°C° 0.3 mm 6 mps 736 mmHg 89%
    11:00 +7°C° 0.3 mm 6 mps 737 mmHg 88%
    12:00 +7°C° 0.3 mm 6 mps 737 mmHg 87%
    13:00 +6°C° 0.5 mm 7 mps 738 mmHg 87%
    14:00 +6°C° 0.5 mm 7 mps 739 mmHg 86%
    15:00 +6°C° 0.5 mm 7 mps 740 mmHg 86%
    16:00 +6°C° 0.5 mm 7 mps 740 mmHg 85%
    17:00 +5°C° 0.5 mm 7 mps 741 mmHg 84%
    18:00 +5°C° 0.5 mm 7 mps 742 mmHg 83%
    19:00 +5°C° 0.2 mm 7 mps 743 mmHg 83%
    20:00 +5°C° 0.2 mm 7 mps 744 mmHg 83%
    21:00 +4°C° 0.2 mm 7 mps 745 mmHg 82%
    22:00 +4°C° 0 mm 6 mps 746 mmHg 82%
    23:00 +3°C° 0 mm 6 mps 746 mmHg 82%

    Day after tomorrow, 26 September, Wednesday

    Time Temperature Precipitation Wind Pressure Humidity
    00:00 +3°C° 0 mm 6 mps 747 mmHg 82%
    01:00 +2°C° 0 mm 6 mps 748 mmHg 81%
    02:00 +2°C° 0 mm 5 mps 749 mmHg 79%
    03:00 +1°C° 0 mm 5 mps 750 mmHg 78%
    04:00 0°C° 0 mm 5 mps 751 mmHg 78%
    05:00 0°C° 0 mm 5 mps 751 mmHg 77%
    06:00 -1°C° 0 mm 4 mps 752 mmHg 77%
    07:00 0°C° 0 mm 4 mps 753 mmHg 73%
    08:00 +1°C° 0 mm 4 mps 753 mmHg 69%
    09:00 +3°C° 0 mm 4 mps 754 mmHg 64%
    10:00 +4°C° 0 mm 4 mps 754 mmHg 60%
    11:00 +6°C° 0 mm 4 mps 754 mmHg 56%
    12:00 +7°C° 0 mm 4 mps 754 mmHg 52%
    13:00 +8°C° 0 mm 4 mps 754 mmHg 52%
    14:00 +8°C° 0 mm 4 mps 754 mmHg 52%
    15:00 +10°C° 0 mm 4 mps 754 mmHg 52%
    16:00 +8°C° 0 mm 4 mps 753 mmHg 57%
    17:00 +7°C° 0 mm 4 mps 753 mmHg 62%
    18:00 +6°C° 0 mm 4 mps 752 mmHg 67%
    19:00 +6°C° 0 mm 4 mps 751 mmHg 68%
    20:00 +6°C° 0 mm 5 mps 751 mmHg 70%
    21:00 +5°C° 0 mm 6 mps 750 mmHg 71%
    22:00 +5°C° 0.3 mm 6 mps 749 mmHg 73%
    23:00 +5°C° 0.3 mm 7 mps 748 mmHg 75%

    27 September, Thursday

    Time Temperature Precipitation Wind Pressure Humidity
    00:00 +5°C° 0.3 mm 7 mps 747 mmHg 77%
    01:00 +4°C° 0.9 mm 7 mps 746 mmHg 80%
    02:00 +4°C° 0.9 mm 7 mps 745 mmHg 82%
    03:00 +4°C° 0.9 mm 8 mps 743 mmHg 84%
    04:00 +4°C° 1 mm 7 mps 743 mmHg 86%
    05:00 +4°C° 1 mm 7 mps 742 mmHg 87%
    06:00 +4°C° 1 mm 7 mps 741 mmHg 88%
    07:00 +5°C° 0.4 mm 6 mps 741 mmHg 87%
    08:00 +5°C° 0.4 mm 6 mps 741 mmHg 85%
    09:00 +7°C° 0.4 mm 5 mps 741 mmHg 84%
    10:00 +8°C° 0.1 mm 6 mps 741 mmHg 78%
    11:00 +9°C° 0.1 mm 6 mps 742 mmHg 72%
    12:00 +10°C° 0.1 mm 6 mps 742 mmHg 66%
    13:00 +10°C° 0.2 mm 6 mps 742 mmHg 63%
    14:00 +10°C° 0.2 mm 6 mps 742 mmHg 60%
    15:00 +10°C° 0.2 mm 6 mps 742 mmHg 58%
    16:00 +9°C° 0.1 mm 5 mps 742 mmHg 62%
    17:00 +8°C° 0.1 mm 4 mps 742 mmHg 67%
    18:00 +9°C° 0.1 mm 3 mps 743 mmHg 71%
    19:00 +8°C° 0 mm 3 mps 743 mmHg 75%
    20:00 +7°C° 0 mm 3 mps 743 mmHg 78%
    21:00 +7°C° 0 mm 3 mps 743 mmHg 82%
    22:00 +7°C° 0 mm 3 mps 743 mmHg 83%
    23:00 +5°C° 0 mm 3 mps 743 mmHg 85%

    28 September, Friday

    Time Temperature Precipitation Wind Pressure Humidity
    00:00 +5°C° 0 mm 3 mps 743 mmHg 87%
    01:00 +5°C° 0.2 mm 3 mps 742 mmHg 89%
    02:00 +7°C° 0.2 mm 3 mps 741 mmHg 91%
    03:00 +7°C° 0.2 mm 3 mps 741 mmHg 93%
    04:00 +7°C° 1.5 mm 3 mps 739 mmHg 94%
    05:00 +7°C° 1.5 mm 3 mps 738 mmHg 95%
    06:00 +8°C° 1.5 mm 3 mps 737 mmHg 95%
    07:00 +7°C° 1.4 mm 4 mps 736 mmHg 94%
    08:00 +8°C° 1.4 mm 4 mps 735 mmHg 94%
    09:00 +10°C° 1.4 mm 4 mps 734 mmHg 93%
    10:00 +8°C° 0.3 mm 5 mps 735 mmHg 90%
    11:00 +7°C° 0.3 mm 6 mps 736 mmHg 88%
    12:00 +5°C° 0.3 mm 7 mps 737 mmHg 86%
    13:00 +7°C° 0.1 mm 6 mps 738 mmHg 82%
    14:00 +8°C° 0.1 mm 6 mps 740 mmHg 79%
    15:00 +8°C° 0.1 mm 6 mps 741 mmHg 75%
    16:00 +7°C° 0.2 mm 5 mps 742 mmHg 77%
    17:00 +7°C° 0.2 mm 4 mps 743 mmHg 79%
    18:00 +6°C° 0.2 mm 4 mps 743 mmHg 81%
    19:00 +6°C° 0 mm 4 mps 744 mmHg 83%
    20:00 +5°C° 0 mm 4 mps 745 mmHg 86%
    21:00 +4°C° 0 mm 3 mps 745 mmHg 88%
    22:00 +4°C° 0 mm 3 mps 746 mmHg 88%
    23:00 +4°C° 0 mm 3 mps 747 mmHg 89%

    29 September, Saturday

    Time Temperature Precipitation Wind Pressure Humidity
    00:00 +3°C° 0 mm 3 mps 747 mmHg 89%
    01:00 +3°C° 0 mm 3 mps 748 mmHg 89%
    02:00 +2°C° 0 mm 3 mps 749 mmHg 89%
    03:00 +2°C° 0 mm 3 mps 749 mmHg 90%
    04:00 +1°C° 0 mm 3 mps 750 mmHg 91%
    05:00 +1°C° 0 mm 3 mps 750 mmHg 92%
    06:00 +1°C° 0 mm 3 mps 750 mmHg 93%
    07:00 +2°C° 0 mm 3 mps 751 mmHg 90%
    08:00 +2°C° 0 mm 3 mps 752 mmHg 87%
    09:00 +3°C° 0 mm 3 mps 752 mmHg 84%
    10:00 +4°C° 0 mm 4 mps 753 mmHg 77%
    11:00 +5°C° 0 mm 4 mps 753 mmHg 69%
    12:00 +6°C° 0 mm 4 mps 754 mmHg 61%
    13:00 +7°C° 0 mm 4 mps 754 mmHg 57%
    14:00 +7°C° 0 mm 4 mps 754 mmHg 53%
    15:00 +8°C° 0 mm 3 mps 754 mmHg 49%
    16:00 +7°C° 0 mm 3 mps 754 mmHg 55%
    17:00 +6°C° 0 mm 2 mps 754 mmHg 60%
    18:00 +5°C° 0 mm 2 mps 754 mmHg 66%
    19:00 +5°C° 0 mm 2 mps 755 mmHg 67%
    20:00 +3°C° 0 mm 3 mps 755 mmHg 69%
    21:00 +3°C° 0 mm 3 mps 755 mmHg 71%
    22:00 +3°C° 0 mm 3 mps 756 mmHg 73%
    23:00 +3°C° 0 mm 3 mps 756 mmHg 75%
    Show more

    3.3.7123123